185P/Petriew (2023)

Japanese version
Home page
Updated on November 4, 2020

---------------------------------------------------------------------

* Profile

* Orbital Elements

Epoch 2023 June 25.0 TT = JDT 2460120.5
T 2023 July 12.90418 TT                                 MPCW
q   0.9303053            (2000.0)            P               Q
n   0.18072118     Peri.  181.88849     +0.80954143     -0.57113557
a   3.0983467      Node   214.11401     +0.54174428     +0.81591419
e   0.6997414      Incl.   14.01467     +0.22617652     +0.08993445
P   5.45
From 1015 observations 2001 June 12-2018 Mar. 24, mean residual 0".7.
     Nongravitational parameters A1 = +0.04, A2 = +0.0156.

* Finding Charts

* Magnitudes Graph

        m1 = 11.0 + 5 log d + 23.0 log r(t - 10)  [   ,140]  (             - 2023 Nov. 29)
        m1 = 14.5 + 5 log d + 10.0 log r          [140,   ]  (2023 Nov. 29 -             )

---------------------------------------------------------------------

The orbital elements are published on M.P.E.C. 2018-F152.
The charts are made with StellaNavigator Ver.10 (AstroArts).
The magnitudes graphs are made with Comet for Windows.

---------------------------------------------------------------------

Copyright(C) Seiichi Yoshida (comet@aerith.net). All rights reserved.